Location: Riverside Cemetery
(38.3047°N, 99.7773°W)
Time: 01:17:01
(UTC+00:00)

MOS 1 Rocket - Pass Details

Date: 19 September 2020
Orbit: 614 x 831 km, 97.4° (Epoch: 23 October)

Event Time Altitude Azimuth Distance (km) Brightness Sun altitude
Rises 01:37:07 0° 14° (NNE) 2,988 6.5 -11.7°
Reaches altitude 10° 01:39:24 10° 17° (NNE) 2,047 5.7 -12.1°
Maximum altitude 01:43:49 69° 100° (E) 672 3.0 -13.0°
Drops below altitude 10° 01:48:03 10° 185° (S) 1,970 5.6 -13.8°
Sets 01:50:13 0° 187° (S) 2,865 6.4 -14.2°
